Temp
12 11 11 12 11 12 12 12 15 15 16 17 17 17 17 17 18 17 17 21 21 22 22 22 22 22 22 20 20 17 18 18 20 20 23 18 22 19 20 19 20 19 18 19 20
11 11 12 11 11 12 12 13 15 16 16 16 16 16 16 17 17 17 20 21 21 21 21 21 20 21 19 21 19 18 18 20 20 19 21 19 22 20 21 21 21 20 18 17 18
11 11 11 11 11 11 13 13 15 15 16 16 16 16 16 17 17 18 21 21 21 21 22 22 22 21 21 21 21 19 20 20 22 21 20 20 21 20 19 20 19 19 19 15 15
11 11 11 11 11 11 13 13 15 15 15 16 16 16 17 16 18 19 20 21 21 21 21 21 21 20 19 21 20 23 21 20 21 21 21 21 20 21 18 22 20 18 17 15 15
11 11 11 11 11 11 12 13 14 15 15 15 16 16 16 16 17 19 19 20 21 21 21 19 21 20 20 20 21 22 21 20 20 20 19 20 21 20 19 18 17 17 15 15 16
11 11 11 10 11 11 12 14 15 15 16 16 16 16 15 17 18 19 19 20 20 20 20 21 20 20 19 19 21 20 19 19 20 20 20 21 20 20 20 17 19 17 15 14 15
11 11 11 10 11 11 12 14 15 15 15 16 16 16 16 18 18 18 19 20 20 21 19 21 21 22 19 19 19 18 20 20 20 19 20 19 20 18 18 18 19 17 14 13 13
11 11 10 10 11 11 12 14 14 15 16 16 16 16 16 17 18 18 18 19 20 21 21 21 22 17 19 17 16 18 17 18 19 18 18 20 19 21 17 18 18 17 14 13 13
11 11 10 10 11 11 13 14 15 15 16 16 16 16 18 17 18 18 19 19 20 20 20 21 19 16 18 16 16 14 18 18 20 17 18 19 20 20 17 17 18 16 14 13 13
11 10 10 10 11 11 13 14 14 15 16 15 16 17 16 16 17 18 19 20 18 18 19 18 14 15 14 16 17 17 19 18 19 18 18 18 16 16 16 16 16 15 14 13 13
11 10 10 10 11 12 12 14 13 14 15 15 16 16 15 16 17 17 18 19 18 16 17 16 16 16 17 17 18 16 18 19 18 18 18 17 15 15 16 16 14 14 14 13 13
11 10 10 10 11 11 12 13 14 15 15 15 15 15 15 16 16 17 18 18 18 16 16 15 16 17 15 17 17 17 18 19 18 17 18 16 16 15 15 16 16 16 15 14 14
10 11 11 11 11 11 12 13 14 15 15 15 16 15 16 16 16 16 17 16 16 15 16 16 18 15 16 16 17 18 17 18 19 17 16 14 16 16 17 16 16 16 14 14 14
9 11 11 11 11 12 12 14 14 15 15 15 15 16 15 16 16 14 16 17 17 15 15 18 16 16 16 16 16 17 16 17 17 16 16 15 16 16 16 15 16 15 12 12 12
8 10 11 11 12 12 12 14 14 15 14 15 14 14 14 16 15 16 16 17 15 15 16 17 15 15 17 18 17 18 16 16 16 14 15 16 15 16 15 19 19 16 14 12 11
8 8 10 10 11 12 12 13 14 13 12 13 13 13 14 14 14 14 16 15 15 16 14 15 15 17 17 14 16 13 14 12 11 12 14 15 15 16 17 20 19 17 14 12 11
7 8 9 9 10 11 12 12 12 10 14 12 12 12 13 13 13 14 14 15 14 14 15 15 16 15 15 15 15 15 15 14 14 12 14 12 13 15 17 16 17 16 14 11 10
6 8 8 8 10 11 11 12 10 11 12 12 12 12 14 13 13 13 13 14 14 14 12 14 15 14 15 16 15 15 16 14 15 12 14 12 13 16 16 13 15 14 14 11 10
6 6 6 8 9 10 11 12 12 11 13 12 13 13 13 13 13 13 12 15 14 13 16 14 15 14 15 15 16 15 15 14 10 1 9 13 13 17 13 14 13 13 12 12 11
6 5 5 7 8 9 12 13 12 12 12 13 13 13 12 12 13 12 12 13 14 13 15 15 15 13 14 15 15 15 13 14 10 11 12 13 14 15 16 15 14 14 13 13 11
6 5 6 7 8 8 11 12 11 11 13 13 13 12 12 12 12 12 13 14 13 12 15 14 15 13 14 13 13 14 14 13 13 12 11 10 14 12 14 13 13 13 14 14 12
4 6 6 6 7 5 8 9 11 11 12 13 13 13 12 12 11 12 13 14 12 13 14 14 12 11 13 13 12 14 14 13 12 12 9 10 13 13 12 12 13 14 14 13 11
4 4 6 6 8 7 8 10 10 11 12 12 13 13 13 12 13 12 12 13 11 13 14 13 11 8 12 13 12 13 13 12 11 10 10 11 12 12 11 12 14 14 14 12 10
3 5 5 6 6 8 9 9 10 10 11 12 12 13 12 13 12 12 12 12 12 13 12 14 11 12 15 14 12 13 12 12 15 12 13 12 13 13 11 11 13 13 12 11 9
1 4 4 5 6 7 9 9 10 10 10 10 10 12 13 12 12 12 11 11 11 11 12 13 11 12 11 12 12 12 12 11 13 15 15 14 13 15 13 10 13 12 10 9 9
1 2 2 4 4 7 8 8 9 9 9 9 9 11 11 12 13 11 11 12 12 11 12 11 9 10 9 11 11 12 11 10 12 11 12 11 12 12 13 11 11 9 9 9 8
2 2 3 3 4 6 8 8 9 9 9 10 10 10 10 11 11 12 10 10 11 11 11 11 9 8 8 9 11 11 10 9 10 10 11 12 14 11 13 12 11 7 8 7 8
Height
752 755 757 758 758 762 762 762 764 768 769 773 776 777 778 779 778 776 778 778 779 779 782 784 786 787 789 793 795 799 826 835 826 829 815 817 815 815 813 817 816 816 817 816 818
749 753 753 755 756 760 759 761 763 766 770 773 774 776 778 777 777 778 774 775 777 778 780 782 785 785 794 795 800 808 828 822 812 814 814 816 813 816 815 816 817 816 816 816 818
746 751 751 753 757 758 757 760 761 766 768 771 774 775 775 776 777 769 771 773 775 777 779 782 782 784 794 796 801 808 818 810 806 806 808 813 814 814 819 821 815 815 813 817 818
743 746 747 750 754 757 758 760 761 765 768 768 771 772 773 776 783 765 769 772 775 776 779 781 782 790 799 804 800 806 807 808 807 806 808 812 813 814 819 810 808 808 809 813 817
742 744 747 750 753 755 756 759 761 762 764 767 770 770 774 776 772 765 766 771 774 775 779 780 785 791 801 802 801 805 808 808 809 809 811 810 813 815 814 808 808 808 810 813 814
740 742 743 748 750 754 755 756 759 760 762 765 768 771 773 776 766 765 769 771 772 776 779 778 783 786 797 802 804 805 808 812 811 811 813 814 815 814 808 807 807 811 812 812 814
736 740 744 748 749 752 752 756 757 758 763 764 768 769 771 767 766 767 768 770 773 776 776 778 780 785 794 804 803 808 814 813 814 814 816 816 821 820 809 810 808 811 814 814 813
734 739 743 745 748 749 752 756 758 761 762 767 769 769 770 765 766 767 770 771 774 774 776 780 781 789 795 802 811 817 824 832 817 818 818 819 832 809 810 809 810 810 813 813 810
734 738 742 746 747 750 753 756 757 759 763 764 766 767 767 765 766 768 769 770 772 777 776 779 783 798 801 814 826 833 833 832 820 821 821 822 822 810 810 811 812 811 811 810 808
733 738 741 744 746 749 754 756 757 759 763 766 768 772 768 765 765 768 769 771 773 776 780 785 798 808 818 818 835 832 827 829 826 823 824 828 827 818 814 813 811 811 809 809 806
734 736 739 742 745 749 752 755 758 764 763 761 760 761 762 764 768 768 771 772 774 780 794 796 806 814 810 810 811 823 824 826 823 821 825 830 831 821 812 813 812 809 807 806 802
732 734 739 741 745 747 750 749 749 750 761 760 760 759 760 761 768 770 770 774 778 794 795 805 810 803 807 809 813 819 823 826 824 823 825 831 830 818 811 806 802 801 803 801 800
730 736 738 741 744 748 747 747 747 750 757 760 757 757 761 764 768 770 770 775 784 794 795 802 797 802 804 814 817 820 826 827 822 827 831 836 830 819 805 804 800 800 799 798 797
729 732 735 739 745 745 748 748 749 749 765 763 762 757 762 762 770 771 772 773 782 792 797 794 798 801 807 815 815 824 818 821 827 834 845 839 851 826 814 811 805 803 802 800 798
726 729 734 738 738 742 743 747 747 748 780 758 760 758 760 765 769 772 771 772 783 787 793 797 803 803 805 804 809 816 818 823 829 844 841 842 850 828 820 806 801 803 804 802 800
725 728 733 736 737 741 741 747 749 769 779 761 759 760 764 767 772 772 771 773 779 787 795 798 796 794 798 810 807 821 827 838 848 852 858 845 846 834 818 805 800 802 806 805 802
728 729 729 732 736 738 741 746 766 783 749 759 759 761 761 771 774 772 777 781 787 800 801 798 798 798 800 812 812 816 828 853 855 867 859 855 853 830 811 808 805 806 806 806 804
729 728 730 730 735 737 741 751 773 754 750 750 754 762 762 765 772 776 779 782 781 783 803 805 812 803 799 799 810 822 819 842 853 868 850 855 849 822 807 808 806 807 806 807 806
727 731 733 734 735 736 740 747 737 743 737 747 752 759 763 762 765 772 780 772 774 779 784 799 800 799 798 797 798 815 822 824 859 927 879 847 836 811 813 810 809 809 810 810 810
731 733 735 734 735 735 736 729 733 733 735 737 746 750 761 766 767 773 778 768 770 771 770 782 799 807 803 799 800 805 816 830 851 870 865 848 840 826 812 812 811 812 813 812 812
735 737 735 735 734 742 724 724 733 733 731 735 740 751 752 758 762 768 767 764 763 772 772 779 785 810 803 803 806 812 814 821 824 838 854 870 835 822 815 815 816 814 812 812 814
738 740 736 734 740 748 739 735 728 731 733 734 732 738 747 754 762 764 762 758 758 763 773 773 789 811 805 801 803 799 804 807 826 838 857 849 835 815 814 814 811 810 812 812 814
740 741 736 734 732 737 737 732 733 733 731 734 732 732 738 745 754 757 759 757 759 759 764 772 793 834 811 804 805 802 804 807 815 827 837 843 830 814 819 816 813 811 809 811 813
740 739 740 738 734 730 730 731 734 734 731 731 730 733 737 741 744 754 756 759 758 759 760 762 783 783 781 781 794 801 801 803 799 823 813 819 817 816 818 819 815 814 813 816 818
741 739 740 740 738 733 729 730 728 731 734 736 741 734 732 741 745 748 754 760 761 762 764 766 783 779 786 784 785 789 794 802 800 791 802 797 806 799 803 815 811 812 815 818 820
743 742 744 742 740 732 731 729 729 732 734 739 741 735 734 733 733 745 747 750 750 761 764 769 790 784 797 790 788 787 792 798 795 802 801 806 803 799 800 806 812 815 817 819 821
738 738 742 743 740 734 727 729 725 729 735 734 739 739 741 738 740 743 748 751 751 756 763 770 784 794 804 798 792 798 787 796 796 798 793 796 785 795 796 799 805 816 818 820 820
Wind_Speed
19 17 16 15 14 15 14 14 16 15 14 15 14 12 11 9 8 7 7 9 12 9 12 10 7 7 5 3 3 3 4 2 7 6 3 4 4 1 1 5 2 4 4 2 19
19 17 16 14 13 15 14 14 16 15 15 15 13 11 10 7 6 9 9 13 12 12 11 12 5 6 4 2 3 4 4 8 5 5 4 6 3 7 4 3 2 3 2 5 25
19 18 16 15 16 15 13 13 15 14 14 12 12 10 8 7 2 8 18 12 11 12 8 6 11 4 4 1 1 3 4 5 3 3 5 7 2 3 6 3 7 9 6 10 15
19 18 16 15 15 14 14 13 14 13 13 11 10 8 6 9 7 3 15 13 11 11 11 8 4 4 4 5 2 4 2 3 3 2 4 6 5 3 6 5 3 8 5 10 11
20 19 17 17 16 13 13 13 13 12 10 9 8 6 8 3 6 6 12 12 11 12 9 5 4 5 7 5 3 3 3 2 2 5 4 4 1 5 6 7 4 4 7 11 13
22 19 17 17 15 13 12 12 11 10 9 7 6 8 2 5 1 7 11 12 10 10 8 6 7 4 6 4 4 4 4 3 2 3 2 0 1 1 2 4 4 2 7 8 10
22 19 19 18 15 13 12 12 11 9 9 7 6 8 2 5 4 7 10 9 11 8 5 4 7 3 5 6 2 5 4 2 1 1 1 1 4 8 3 3 2 5 6 6 11
21 20 20 17 15 12 12 12 11 9 7 7 7 8 4 2 6 8 9 10 9 7 8 7 8 7 4 5 7 5 5 3 2 4 1 3 8 2 4 2 6 6 7 8 10
20 19 18 17 14 12 12 10 8 7 6 5 4 4 3 4 5 8 8 10 10 9 9 9 6 4 4 6 5 7 3 3 2 3 2 3 6 3 2 4 5 6 8 8 9
19 19 18 16 14 13 12 9 8 7 5 6 3 2 1 4 5 8 6 13 5 5 5 6 5 4 3 4 6 5 3 3 3 1 1 0 10 7 7 5 9 9 8 9 9
18 17 17 16 14 14 14 9 4 2 3 4 3 3 5 6 6 4 6 7 4 8 5 2 5 7 9 5 4 6 5 3 1 1 3 5 7 12 9 5 10 11 9 9 11
15 14 14 15 15 13 14 3 4 4 4 2 2 3 4 3 4 0 7 5 4 5 5 5 5 5 7 6 5 5 4 2 1 2 2 4 10 11 10 8 7 7 9 9 7
18 18 17 15 13 11 7 4 4 4 5 3 2 5 4 4 3 7 4 3 5 6 4 7 2 9 6 4 6 3 6 4 3 1 3 5 8 6 4 3 5 5 6 5 8
16 18 18 16 9 10 5 9 7 4 4 4 5 3 4 5 2 1 2 3 2 6 7 4 2 8 7 4 5 5 6 5 6 4 3 3 5 6 5 9 5 8 7 7 8
9 13 19 23 8 7 7 11 7 3 3 4 3 3 2 5 4 0 1 3 7 6 6 6 7 7 5 5 6 3 4 5 4 4 3 3 2 7 4 5 5 7 8 7 6
6 6 11 13 7 11 13 12 4 4 7 4 3 6 7 2 1 3 2 5 4 5 5 3 0 3 4 4 2 9 7 8 5 3 1 3 4 5 3 2 3 3 7 7 8
1 2 3 7 5 12 15 4 4 5 1 6 5 5 4 5 4 3 7 5 6 6 3 2 1 1 4 7 5 4 6 2 2 2 5 2 2 8 4 5 3 5 6 6 6
6 2 2 5 11 14 7 3 4 6 6 3 5 6 7 6 2 2 7 7 4 5 5 6 3 8 5 5 8 6 6 5 7 4 2 2 5 5 2 6 1 3 3 6 8
7 3 1 3 4 10 5 10 9 6 8 8 5 5 3 2 5 5 7 9 8 8 7 5 3 1 2 3 5 5 4 5 7 3 3 3 6 4 5 6 5 7 7 7 7
3 4 3 2 3 6 8 12 6 3 5 5 6 5 7 8 5 5 9 5 6 8 2 7 4 2 1 2 4 3 8 3 3 3 3 3 4 5 1 4 4 7 7 6 6
3 2 2 5 6 2 11 7 4 3 2 5 5 6 6 8 7 7 9 2 6 8 2 6 4 1 3 5 8 3 3 4 5 4 5 2 5 6 8 6 7 6 3 6 6
3 2 2 3 3 1 2 4 2 4 2 3 3 4 8 9 7 6 12 5 8 11 9 5 5 4 6 2 1 1 6 6 5 4 1 3 5 3 8 7 6 5 5 5 6
2 1 2 2 3 3 3 3 1 4 4 5 4 2 3 7 4 6 6 1 6 9 11 7 2 3 4 3 3 4 4 4 5 3 7 6 5 3 3 5 2 5 5 6 6
2 2 2 1 2 3 4 6 7 2 2 2 3 2 4 4 3 7 5 1 4 4 4 7 3 8 11 4 7 6 6 6 6 3 5 6 7 7 8 7 3 2 4 3 6
2 1 1 3 4 2 8 7 6 7 2 2 2 4 5 5 3 5 3 4 4 1 3 5 6 3 3 3 5 4 8 10 9 13 8 7 10 17 16 9 4 4 5 6 6
3 3 1 1 2 6 4 8 9 2 7 4 3 3 2 5 4 6 7 4 5 3 3 2 3 3 2 3 3 3 6 8 6 4 2 3 5 5 5 6 6 6 6 5 5
3 1 2 2 1 4 5 3 10 9 4 3 7 4 5 5 4 2 5 6 5 5 4 4 5 3 4 4 4 5 11 9 5 4 8 11 8 7 4 6 7 7 7 6 5
Wind_Direction
210 212 211 213 209 208 203 198 196 202 209 216 214 219 227 231 234 195 217 219 214 190 182 168 156 142 116 90 79 134 65 160 186 150 222 147 159 163 323 123 224 181 157 154 167
212 208 204 206 208 212 200 200 193 199 207 213 218 219 220 218 197 227 223 211 201 181 173 166 153 125 65 76 27 85 110 207 185 187 189 174 177 172 149 144 233 288 162 161 163
212 207 202 202 209 210 199 200 196 195 204 207 213 211 214 183 158 231 215 194 187 179 173 185 145 93 89 98 97 129 170 186 188 172 160 151 158 170 133 237 212 201 184 156 163
214 206 202 205 207 205 200 201 193 200 198 207 208 204 199 179 179 175 177 181 181 169 154 136 89 86 108 149 131 107 83 160 156 129 126 147 122 201 191 224 334 230 165 163 171
206 204 200 206 204 199 199 202 193 191 199 194 208 185 157 211 254 160 162 175 172 166 168 125 112 126 138 149 104 106 137 79 62 56 66 119 167 233 251 256 9 96 159 183 187
202 202 201 207 202 198 191 197 197 186 196 196 203 189 218 204 159 161 169 167 167 167 164 137 168 161 102 133 126 134 95 103 46 75 56 135 280 34 285 308 180 149 207 202 202
199 197 203 207 194 197 190 194 193 193 185 190 203 179 220 225 170 158 157 166 166 175 132 142 140 87 133 114 139 104 85 26 90 108 39 122 281 236 250 348 238 235 255 242 242
194 199 207 201 195 194 190 190 183 183 189 187 190 174 232 180 159 151 156 135 142 141 127 124 125 100 76 117 33 75 59 118 299 135 5 99 272 290 18 207 242 255 258 241 242
194 202 202 199 190 186 187 185 171 167 171 174 171 172 248 145 152 164 163 143 123 120 100 108 71 90 49 96 52 11 171 183 311 205 114 145 266 284 148 36 297 280 255 250 258
193 199 194 192 186 178 171 163 152 136 147 144 170 159 178 206 148 153 152 143 113 107 65 54 59 83 51 95 191 177 154 222 208 179 75 98 269 283 278 293 275 273 263 256 254
192 200 189 182 180 171 161 143 80 60 206 196 201 149 128 122 129 134 158 109 88 58 132 10 100 188 190 153 117 128 120 159 200 96 176 234 266 281 281 255 268 273 270 258 254
182 182 184 176 173 173 178 171 183 152 152 232 143 81 111 138 100 248 165 110 114 129 127 54 206 194 121 125 113 121 124 172 52 58 131 357 281 263 271 256 241 260 280 278 280
174 182 177 174 165 175 196 194 166 177 117 220 198 135 156 161 131 188 142 133 115 129 172 147 205 139 119 130 128 123 152 180 146 74 60 344 300 322 308 290 307 290 267 289 285
159 174 176 170 164 176 184 192 177 165 97 214 216 190 120 143 90 307 210 131 112 151 150 147 115 139 121 167 135 171 190 141 127 91 220 22 280 307 317 308 330 340 3 10 14
118 164 179 168 155 171 159 171 161 67 190 166 163 132 102 144 135 199 310 61 149 141 125 203 165 143 133 184 159 176 113 113 88 95 77 322 79 272 342 331 358 22 19 16 10
76 110 163 173 161 162 153 156 131 77 234 160 121 158 116 79 49 109 111 41 126 96 35 131 207 104 140 72 80 150 77 49 58 85 347 260 150 282 228 190 306 353 351 356 1
311 99 124 147 150 160 150 124 87 167 214 183 173 171 116 147 115 134 158 162 154 117 162 44 83 48 127 86 44 83 91 21 359 15 218 351 95 245 254 261 251 329 356 0 4
349 307 282 110 157 161 140 87 149 197 188 124 121 117 162 152 104 123 128 175 245 94 130 145 205 171 185 158 162 187 159 157 193 189 230 73 231 249 189 322 327 65 59 32 31
25 307 219 145 168 164 159 191 202 194 149 136 78 118 163 207 126 142 200 198 189 185 147 135 217 20 60 129 147 184 190 157 106 23 58 218 284 316 21 43 66 64 68 55 44
62 54 299 233 151 71 187 204 173 144 120 148 151 162 168 175 134 170 165 193 200 183 203 197 115 3 31 100 56 159 162 85 8 131 229 284 278 227 137 108 55 68 79 75 55
86 106 263 193 93 55 201 211 138 208 148 151 155 145 166 170 158 188 195 270 190 176 185 145 109 347 122 219 162 133 180 59 114 137 163 166 254 219 151 163 119 95 107 108 88
99 177 288 178 145 213 185 202 93 159 150 200 134 113 164 161 152 185 201 232 172 151 171 189 112 145 201 284 273 178 178 149 136 215 243 141 261 205 170 164 123 83 87 75 90
114 253 358 325 174 172 180 170 300 162 170 169 170 176 179 157 148 180 179 260 155 158 164 185 190 83 11 349 352 198 190 127 115 93 193 140 252 75 126 114 83 92 10 18 50
101 148 14 6 327 151 149 185 174 259 130 123 147 113 129 142 33 164 142 104 163 164 149 109 140 176 203 181 134 179 182 177 150 160 179 217 143 218 219 191 197 220 269 71 56
60 234 312 177 216 210 168 183 158 168 163 173 206 217 184 129 109 144 125 133 69 65 78 137 166 133 32 121 127 157 171 177 191 207 189 191 179 200 207 182 180 146 121 107 68
143 144 350 189 296 175 213 195 183 154 161 179 179 207 154 146 169 184 139 172 164 125 109 37 152 120 95 75 79 159 199 193 197 143 139 157 236 195 152 148 141 157 141 112 86
146 103 118 339 128 205 198 176 196 151 192 176 183 169 262 204 186 126 91 79 112 129 123 110 132 114 201 121 105 308 210 180 181 182 166 213 211 156 161 157 144 147 145 144 123